Airfield :
LOGIN :

Register | Disclaimer

   EN    FR    IT 

 










Legend :    VFR   Marginal VFR   IFR   Intensive IFR   Very Intensive IFR
Visi :
Ceiling :
>= 8 km
>= 3000ft
5 to 8 km
1000 to 3000 ft
1500m to 5 km
500 to 1000 ft
800 to 1500m
200 to 500 ft
< 800m
< 200 ft
Symbols :   Thunderstorms  Fog  Heavy snow  Heavy precipitations  Wind > 20 kt
SIGMETs :     Misc.  Thunderstorms  Icing  Turbulence  Mountain Waves  Volcanic Ashes







- Airport Elevation : 231 ft
- IATA code : WTN


EGXW - RAF Waddington

CURRENT METAR :
  • 192150Z 22009KT 9999 FEW035 19/15 Q1019 BLU

EXPIRED METARs :
  • 192050Z 22012KT 9999 FEW035 20/15 Q1019 BLU
  • 191950Z 21011KT 9999 FEW035 SCT045 20/16 Q1019 BLU

TAF TAF EGXW
Valid from the 19 at 21:00 until the 20 at 15:00 UTC


191934Z 1921/2015 23012KT 9999 SCT030
PROB30
TEMPO 1923/2011 SCT020
BECMG 2006/2009 23018G28KT
PROB40 2011/2013 BKN020
No reported NOTAMs for that airfield.



MET'MAP, your aeronautical weather chart ! - Copyright ORBIFLY December 2007 - Disclaimer

ORBIFLY MET'MAP TEAM :

Programming & Development : Alexandra Zaïnal
Concept & Development : Baudouin d'Aumeries
Co-Development & Prog : Marc-Olivier Méhu
Technical & hardware support : Manuel Goepfert

Contact : metmap@orbifly.com




SOURCES & CREDITS :

   NOAA